{"data":{"norad_id":69801,"epoch":"2026-09-20T03:56:57.926112Z","epoch_age_seconds":50610,"freshness":"FRESH","line1":"1 69801U 26153B   26263.16455933  .00000282  00000+0  16260-3 0  9995","line2":"2 69801  88.9978 351.4626 0007018 345.6508  14.4474 14.06321150 11019","mean_motion":14.0632115,"eccentricity":0.0007018,"inclination_deg":88.9978,"raan_deg":351.4626,"arg_perigee_deg":345.6508,"mean_anomaly_deg":14.4474,"bstar":0.0001626,"rev_number":1101,"period_min":102.39481927723,"perigee_km":866.8999979658,"apogee_km":877.07627360639,"semimajor_km":7250.1251357861,"source":"CELESTRAK","updated_at":"2026-09-20T09:00:25.119072Z"}}